Station PCLF1 - 8729840 - Pensacola, FL Image indicating link to RSS feed of recent meteorological observations for station PCLF1


Conditions at PCLF1 as of
(1:00 pm CDT)
1800 GMT on 05/24/2024:
     

Click on the graph icon in the table below to see a time series plot of the last five days of that observation.

5-day plot - Wind Direction Wind Direction (WDIR): S ( 190 deg true )
5-day plot - Wind Speed Wind Speed (WSPD): 9.9 kts
5-day plot - Wind Gust Wind Gust (GST): 13.0 kts
5-day plot - Atmospheric Pressure Atmospheric Pressure (PRES):29.96 in
5-day plot - Pressure Tendency Pressure Tendency (PTDY):+0.00 in ( Steady )
5-day plot - Air Temperature Air Temperature (ATMP): 83.7 °F
5-day plot - Wind Speed at 10 Meters Wind Speed at 10 meters (WSPD10M): 9.7 kts
5-day plot - Wind Speed at 20 Meters Wind Speed at 20 meters (WSPD20M): 11.7 kts
5-day plot -  Wind Speed, Wind Gust and Atmospheric Pressure Combined plot of Wind Speed, Gust, and Air Pressure
NOS Water Level Observation Network Water Level
Previous observations
TIME
(CDT)
5-day plot - Wind Direction
WDIR
 
5-day plot - Wind Speed
WSPD
kts
5-day plot - Wind Gust
GST
kts
5-day plot - Wave Height
WVHT
ft
5-day plot - Dominant Wave Period
DPD
sec
5-day plot - Average Wave Period
APD
sec
5-day plot - Mean Wave Direction
MWD
 
5-day plot - Atmospheric Pressure
PRES
in
5-day plot - Pressure Tendency
PTDY
in
5-day plot - Air Temperature
ATMP
°F
5-day plot - Water Temperature
WTMP
°F
5-day plot - Dew Point
DEWP
°F
5-day plot - Salinity
SAL
psu
5-day plot - Visibility
VIS
nmi
5-day plot - Tide (above MLLW)
TIDE
ft
2024-05-24 12:54 pm S 8.0 11.1----29.96- 83.7-----
2024-05-24 12:48 pm S 8.0 9.9----29.96- 83.5-----
2024-05-24 12:42 pm S 8.0 11.1----29.96- 83.7-----
2024-05-24 12:36 pm S 8.0 8.9----29.96- 84.0-----
2024-05-24 12:30 pm S 7.0 9.9----29.96- 84.0-----
2024-05-24 12:24 pm S 8.9 11.1----29.96- 83.5-----
2024-05-24 12:18 pm S 8.0 11.1----29.96- 84.0-----
2024-05-24 12:12 pm S 8.0 9.9----29.96- 83.7-----
2024-05-24 12:06 pm S 8.0 9.9----29.96- 83.8-----
2024-05-24 12:00 pm S 8.0 9.9----29.96+0.00 83.7-----
2024-05-24 11:54 am S 7.0 8.9----29.97- 83.8-----
2024-05-24 11:48 am S 5.1 8.0----29.97- 83.8-----
2024-05-24 11:42 am S 6.0 8.0----29.97- 83.3-----
2024-05-24 11:36 am S 6.0 8.0----29.97- 83.3-----
2024-05-24 11:30 am S 6.0 8.0----29.97- 83.5-----
2024-05-24 11:24 amSSW 6.0 8.0----29.97- 82.4-----
2024-05-24 11:18 am S 6.0 7.0----29.97- 83.1-----
2024-05-24 11:12 am S 6.0 8.0----29.97- 82.8-----
2024-05-24 11:06 am S 6.0 9.9----29.97- 83.1-----
2024-05-24 11:00 am S 8.0 8.9----29.96+0.01 83.1-----
2024-05-24 10:54 am S 7.0 8.0----29.96- 82.9-----
2024-05-24 10:48 am S 5.1 8.0----29.96- 83.1-----
2024-05-24 10:42 am S 8.0 8.9----29.96- 82.2-----
2024-05-24 10:36 amSSW 7.0 8.0----29.96- 82.0-----
2024-05-24 10:30 am S 7.0 8.9----29.97- 82.6-----
2024-05-24 10:24 amSSW 7.0 9.9----29.96- 82.0-----
2024-05-24 10:18 am S 6.0 8.9----29.96- 82.6-----
2024-05-24 10:12 am S 7.0 8.0----29.96- 82.8-----
2024-05-24 10:06 am S 6.0 8.0----29.96- 82.8-----
2024-05-24 10:00 am S 6.0 7.0----29.96+0.04 82.6-----
2024-05-24 09:54 am S 6.0 8.0----29.96- 82.6-----
2024-05-24 09:48 am S 6.0 8.0----29.96- 82.4-----
2024-05-24 09:42 am S 6.0 7.0----29.96- 82.4-----
2024-05-24 09:36 amSSW 7.0 8.9----29.96- 81.3-----
2024-05-24 09:30 amSSW 6.0 8.0----29.96- 81.3-----
2024-05-24 09:24 amSSW 6.0 8.0----29.96- 81.3-----
2024-05-24 09:18 amSSW 5.1 8.9----29.96- 81.5-----
2024-05-24 09:12 amSSW 6.0 8.0----29.96- 81.1-----
2024-05-24 09:06 amSSW 6.0 8.0----29.96- 80.8-----
2024-05-24 09:00 am SW 7.0 8.9----29.96+0.13 80.8-----
2024-05-24 08:54 am SW 8.9 11.1----29.96- 80.4-----
2024-05-24 08:48 am SW 7.0 9.9----29.96- 80.4-----
2024-05-24 08:42 amSSW 7.0 8.9----29.96- 80.6-----
2024-05-24 08:36 am SW 5.1 8.0----29.96- 80.2-----
2024-05-24 08:30 amSSW 7.0 9.9----29.96- 79.9-----
2024-05-24 08:24 amSSW 6.0 8.0----29.96- 80.4-----
2024-05-24 08:18 amSSW 6.0 8.0----29.95- 80.4-----
2024-05-24 08:12 am SW 5.1 8.0----29.95- 80.6-----
2024-05-24 08:06 amSSW 6.0 8.9----29.95- 80.2-----
2024-05-24 08:00 amSSW 6.0 8.9----29.95+0.05 80.4-----
2024-05-24 07:54 amSSW 6.0 8.9----29.95- 80.2-----
2024-05-24 07:48 amSSW 6.0 8.9----29.95- 80.8-----
2024-05-24 07:42 amSSW 8.0 9.9----29.94- 80.6-----
2024-05-24 07:36 amSSW 7.0 11.1----29.94- 80.4-----
2024-05-24 07:30 amSSW 8.9 9.9----29.95- 79.9-----
2024-05-24 07:24 amSSW 7.0 12.0----29.95- 79.7-----
2024-05-24 07:18 amSSW 8.0 11.1----29.94- 79.9-----
2024-05-24 07:12 amSSW 11.1 12.0----29.94- 79.5-----
2024-05-24 07:06 am S 8.9 12.0----29.93- 79.7-----
2024-05-24 07:00 am S 8.9 14.0----29.92+0.02 79.7-----
2024-05-24 06:54 am S 11.1 17.1----29.91- 79.7-----
2024-05-24 06:48 am S 14.0 20.0----29.90- 79.3-----
2024-05-24 06:42 am S 15.9 22.0----29.89- 79.3-----
2024-05-24 06:36 am S 18.1 20.0----29.89- 79.5-----
2024-05-24 06:30 am S 15.9 20.0----29.88- 79.5-----
2024-05-24 06:24 am S 15.9 20.0----29.88- 79.3-----
2024-05-24 06:18 am S 13.0 18.1----29.89- 79.3-----
2024-05-24 06:12 am S 12.0 18.1----29.88- 79.3-----
2024-05-24 06:06 am S 15.0 22.0----29.85- 79.2-----
2024-05-24 06:00 am S 15.9 20.0----29.84-0.11 78.8-----
2024-05-24 05:54 amSSE 13.0 18.1----29.84- 78.8-----
2024-05-24 05:48 amSSE 11.1 13.0----29.86- 78.8-----
2024-05-24 05:42 amSSE 8.0 12.0----29.85- 78.4-----
2024-05-24 05:36 amSSE 2.9 8.9----29.86- 78.1-----
2024-05-24 05:30 am SE 2.9 8.0----29.85- 77.9-----
2024-05-24 05:24 amENE 1.9 7.0----29.83- 77.7-----
2024-05-24 05:18 amENE 1.9 7.0----29.83- 77.7-----
2024-05-24 05:12 am NE 1.0 2.9----29.87- 77.9-----
2024-05-24 05:06 am- 0.0 2.9----29.90- 78.1-----
2024-05-24 05:00 am- 0.0 5.1----29.90-0.04 78.3-----
2024-05-24 04:54 amSSE 1.9 6.0----29.89- 78.1-----
2024-05-24 04:48 am SE 1.9 5.1----29.88- 77.9-----
2024-05-24 04:42 am- 0.0 2.9----29.88- 77.5-----
2024-05-24 04:36 am NE 1.0 5.1----29.90- 77.4-----
2024-05-24 04:30 amESE 1.9 5.1----29.89- 77.0-----
2024-05-24 04:24 amNNE 4.1 8.9----29.90- 76.8-----
2024-05-24 04:18 amENE 1.9 5.1----29.91- 77.5-----
2024-05-24 04:12 am- 0.0 1.0----29.93- 77.4-----
2024-05-24 04:06 amENE 1.0 4.1----29.92- 77.2-----
2024-05-24 04:00 am E 2.9 5.1----29.90-0.06 77.2-----
2024-05-24 03:54 am E 2.9 5.1----29.90- 76.8-----
2024-05-24 03:48 amENE 1.9 5.1----29.92- 76.6-----
2024-05-24 03:42 amNNE 2.9 4.1----29.93- 77.2-----
2024-05-24 03:36 amNNE 1.9 2.9----29.94- 77.4-----
2024-05-24 03:30 amNNE 1.0 2.9----29.94- 77.4-----
2024-05-24 03:24 amNNE 1.9 2.9----29.94- 77.5-----
2024-05-24 03:18 am N 1.9 4.1----29.95- 77.7-----
2024-05-24 03:12 amNNW 1.9 4.1----29.95- 77.7-----
2024-05-24 03:06 am N 2.9 4.1----29.95- 77.7-----
2024-05-24 03:00 am N 1.9 4.1----29.95-0.03 77.9-----
2024-05-24 02:54 amNNW 1.9 5.1----29.95- 77.9-----
2024-05-24 02:48 am NW 2.9 4.1----29.95- 78.1-----
2024-05-24 02:42 am NW 1.9 4.1----29.95- 78.3-----
2024-05-24 02:36 amNNW 4.1 5.1----29.95- 78.6-----
2024-05-24 02:30 amWNW 1.9 4.1----29.94- 79.0-----
2024-05-24 02:24 am SW 4.1 5.1----29.94- 79.5-----
2024-05-24 02:18 amSSW 2.9 5.1----29.94- 79.3-----
2024-05-24 02:12 amSSW 2.9 4.1----29.95- 79.3-----
2024-05-24 02:06 am S 4.1 5.1----29.94- 79.3-----
2024-05-24 02:00 am S 2.9 5.1----29.94-0.03 79.5-----
2024-05-24 01:54 am SW 2.9 6.0----29.94- 79.3-----
2024-05-24 01:48 am SW 4.1 7.0----29.95- 79.5-----
2024-05-24 01:42 amSSW 6.0 7.0----29.95- 79.7-----
2024-05-24 01:36 am S 6.0 7.0----29.95- 79.7-----
2024-05-24 01:30 am S 6.0 7.0----29.96- 79.7-----
2024-05-24 01:24 amSSW 6.0 8.0----29.96- 79.5-----
2024-05-24 01:18 am S 7.0 8.0----29.96- 79.5-----
2024-05-24 01:12 amSSW 5.1 8.0----29.96- 79.7-----
2024-05-24 01:06 amSSW 6.0 8.9----29.96- 79.7-----
2024-05-24 01:00 amSSW 6.0 8.0----29.96+0.00------
2024-05-24 12:54 amSSW 6.0 8.0----29.96-------
2024-05-24 12:48 amSSW 5.1 7.0----29.96- 79.7-----
2024-05-24 12:42 amSSW 6.0 8.0----29.97- 79.7-----
2024-05-24 12:36 amSSW 6.0 8.0----29.97- 79.7-----
2024-05-24 12:30 amSSW 6.0 9.9----29.97- 79.7-----
2024-05-24 12:24 amSSW 7.0 8.0----29.97- 79.5-----
2024-05-24 12:18 am SW 7.0 8.9----29.97- 79.7-----
2024-05-24 12:12 amSSW 7.0 9.9----29.98- 79.9-----
2024-05-24 12:06 amSSW 7.0 8.9----29.98- 79.9-----
2024-05-24 12:00 am S 8.0 8.9----29.97+0.04 80.1-----
2024-05-23 11:54 pm S 6.0 8.0----29.97- 80.1-----
2024-05-23 11:48 pm S 6.0 8.9----29.97-------
2024-05-23 11:42 pm S 6.0 8.9----29.97-------
2024-05-23 11:36 pm S 5.1 8.9----29.97-------
2024-05-23 11:30 pm S 7.0 8.9----29.97- 79.9-----
2024-05-23 11:24 pm S 6.0 8.0----29.97- 80.1-----
2024-05-23 11:18 pmSSW 7.0 8.9----29.97- 80.2-----
2024-05-23 11:12 pm S 7.0 8.9----29.97- 80.2-----
2024-05-23 11:06 pm S 6.0 8.9----29.97- 80.1-----
2024-05-23 11:00 pmSSW 7.0 8.9----29.97+0.04 80.4-----
2024-05-23 10:54 pmSSW 7.0 8.9----29.97- 80.1-----
2024-05-23 10:48 pmSSW 8.0 9.9----29.97- 80.2-----
2024-05-23 10:42 pmSSW 8.0 9.9----29.97- 80.1-----
2024-05-23 10:36 pmSSW 7.0 8.9----29.97- 80.1-----
2024-05-23 10:30 pmSSW 7.0 8.9----29.97- 80.4-----
2024-05-23 10:24 pmSSW 6.0 8.9----29.97- 80.4-----
2024-05-23 10:18 pmSSW 7.0 9.9----29.96- 80.2-----
2024-05-23 10:12 pmSSW 6.0 8.9----29.96- 80.2-----
2024-05-23 10:06 pmSSW 8.0 9.9----29.96- 80.2-----
2024-05-23 10:00 pmSSW 8.0 9.9----29.96+0.03 80.4-----
2024-05-23 09:54 pmSSW 8.0 9.9----29.96- 80.4-----
2024-05-23 09:48 pmSSW 8.0 9.9----29.96- 80.4-----
2024-05-23 09:42 pmSSW 7.0 9.9----29.95- 80.6-----
2024-05-23 09:36 pmSSW 6.0 8.9----29.95- 80.6-----
2024-05-23 09:30 pm S 7.0 8.9----29.95- 80.4-----
2024-05-23 09:24 pmSSW 8.0 9.9----29.94- 80.6-----
2024-05-23 09:18 pmSSW 7.0 9.9----29.94- 80.6-----
2024-05-23 09:12 pmSSW 8.9 9.9----29.94- 80.6-----
2024-05-23 09:06 pmSSW 7.0 9.9----29.94- 80.8-----
2024-05-23 09:00 pm S 7.0 8.9----29.93-0.02 80.6-----
2024-05-23 08:54 pmSSW 8.0 9.9----29.93- 80.8-----
2024-05-23 08:48 pmSSW 8.9 9.9----29.93- 80.6-----
2024-05-23 08:42 pm S 7.0 11.1----29.93- 80.8-----
2024-05-23 08:36 pmSSW 8.0 11.1----29.93- 80.8-----
2024-05-23 08:30 pm S 8.0 8.9----29.93- 80.8-----
2024-05-23 08:24 pm S 8.9 11.1----29.93- 80.8-----
2024-05-23 08:18 pm S 7.0 9.9----29.93- 81.0-----
2024-05-23 08:12 pm S 7.0 9.9----29.93- 81.1-----
2024-05-23 08:06 pmSSW 8.0 9.9----29.93- 81.0-----
2024-05-23 08:00 pm S 8.0 9.9----29.92-0.04 81.0-----
2024-05-23 07:54 pm S 7.0 9.9----29.93- 81.1-----
2024-05-23 07:48 pm S 8.0 9.9----29.93- 81.1-----
2024-05-23 07:42 pm S 7.0 9.9----29.93- 81.3-----
2024-05-23 07:36 pmSSW 7.0 9.9----29.93- 81.1-----
2024-05-23 07:30 pmSSW 8.0 9.9----29.93- 81.1-----
2024-05-23 07:24 pmSSW 8.0 11.1----29.93- 81.3-----
2024-05-23 07:18 pm S 7.0 11.1----29.93- 81.9-----
2024-05-23 07:12 pm S 8.9 11.1----29.93- 81.9-----
2024-05-23 07:06 pm S 8.0 9.9----29.93- 81.9-----
2024-05-23 07:00 pm S 8.0 11.1----29.93-0.05 82.4-----
2024-05-23 06:54 pm S 8.0 8.9----29.94- 82.6-----
2024-05-23 06:48 pmSSW 7.0 8.9----29.94- 82.4-----
2024-05-23 06:42 pm S 7.0 8.0----29.94- 82.8-----
2024-05-23 06:36 pm S 7.0 8.9----29.94- 82.8-----
2024-05-23 06:30 pm S 7.0 9.9----29.95- 82.6-----
2024-05-23 06:24 pmSSW 8.0 9.9----29.95- 82.2-----
2024-05-23 06:18 pm S 7.0 9.9----29.95- 82.4-----
2024-05-23 06:12 pm S 8.0 9.9----29.95- 82.6-----
2024-05-23 06:06 pm S 8.0 11.1----29.96- 82.8-----
2024-05-23 06:00 pm S 8.9 11.1----29.96-0.04 83.3-----
2024-05-23 05:54 pm S 8.0 9.9----29.96- 83.3-----
2024-05-23 05:48 pm S 8.0 8.9----29.96- 83.7-----
2024-05-23 05:42 pm S 8.0 9.9----29.96- 83.7-----
2024-05-23 05:36 pm S 8.9 9.9----29.96- 83.8-----
2024-05-23 05:30 pm S 7.0 9.9----29.96- 83.8-----
2024-05-23 05:24 pm S 7.0 8.9----29.96- 84.2-----
2024-05-23 05:18 pm S 8.0 9.9----29.96- 84.2-----
2024-05-23 05:12 pm S 7.0 8.9----29.96- 84.4-----
2024-05-23 05:06 pm S 8.0 9.9----29.96- 84.6-----
2024-05-23 05:00 pm S 7.0 8.0----29.96-0.04 84.6-----
2024-05-23 04:54 pm S 7.0 8.9----29.96- 84.4-----
2024-05-23 04:48 pm S 7.0 8.9----29.96- 84.7-----
2024-05-23 04:42 pm S 7.0 8.9----29.97- 84.6-----
2024-05-23 04:36 pm S 7.0 8.9----29.97- 84.7-----
2024-05-23 04:30 pm S 6.0 8.0----29.97- 84.4-----
2024-05-23 04:24 pm S 5.1 8.0----29.98- 84.4-----
2024-05-23 04:18 pm S 6.0 7.0----29.98- 84.2-----
2024-05-23 04:12 pm S 5.1 6.0----29.98- 83.8-----
2024-05-23 04:06 pm S 5.1 7.0----29.98- 83.8-----
2024-05-23 04:00 pm S 4.1 7.0----29.99-0.02 84.0-----
2024-05-23 03:54 pm S 5.1 6.0----29.99- 84.4-----
2024-05-23 03:48 pm S 5.1 7.0----29.99- 84.2-----
2024-05-23 03:42 pm S 5.1 8.0----30.00- 83.7-----
2024-05-23 03:36 pm S 7.0 8.0----30.00- 84.7-----
2024-05-23 03:30 pm S 7.0 8.0----30.00- 84.4-----
2024-05-23 03:24 pmSSW 5.1 7.0----30.00- 84.0-----
2024-05-23 03:18 pmSSW 6.0 7.0----30.00- 83.8-----
2024-05-23 03:12 pm S 5.1 7.0----30.00- 84.6-----
2024-05-23 03:06 pmSSW 6.0 7.0----30.00- 83.5-----
2024-05-23 03:00 pmSSW 6.0 7.0----30.00+0.00 83.8-----
2024-05-23 02:54 pmSSW 6.0 7.0----30.00- 84.2-----
2024-05-23 02:48 pmSSW 6.0 7.0----30.00- 83.7-----
2024-05-23 02:42 pmSSW 5.1 6.0----30.00- 83.8-----
2024-05-23 02:36 pmSSW 4.1 6.0----30.00- 84.0-----
2024-05-23 02:30 pm S 5.1 6.0----30.00- 84.6-----
2024-05-23 02:24 pm S 4.1 5.1----30.00- 84.2-----
2024-05-23 02:18 pm S 4.1 5.1----30.01- 84.9-----
2024-05-23 02:12 pmSSE 1.9 6.0----30.01- 86.0-----
2024-05-23 02:06 pmSSE 1.9 5.1----30.01- 85.5-----
2024-05-23 02:00 pm- 0.0 6.0----30.01+0.02 86.5-----
2024-05-23 01:54 pm S 4.1 7.0----30.00- 84.0-----
2024-05-23 01:48 pm S 4.1 6.0----30.00- 84.4-----
2024-05-23 01:42 pm S 5.1 6.0----30.00- 84.4-----
2024-05-23 01:36 pm S 5.1 8.0----30.01- 83.8-----
2024-05-23 01:30 pm S 5.1 8.0----30.01- 83.8-----
2024-05-23 01:24 pm S 5.1 7.0----30.01- 83.1-----
2024-05-23 01:18 pm S 6.0 8.0----30.01- 83.5-----
2024-05-23 01:12 pmSSW 5.1 8.0----30.01- 82.6-----
2024-05-23 01:06 pmSSW 4.1 7.0----30.01- 83.1-----
2024-05-23 01:00 pm S 6.0 8.0----30.01+0.04 83.3-----
2024-05-23 12:54 pm S 5.1 7.0----30.01- 83.1-----